User: anonymous   Login
Location: Unspecified
(0.0000°N, 0.0000°E)
Time: 05:27:15
(UTC+00:00)
Language:

STARLINK-6154 - Orbit

View from above orbital plane
View from above orbital plane
View from above satellite
View from above satellite

Ground track
Ground track

The orbit data is extracted from the following two-line orbital elements,

1 57123C 23090Y   24198.12062500  .00016754  00000+0  12364-2 0  1983
2 57123  43.0033 303.0783 0001557 261.6841 170.2329 15.02513941    19
Epoch (UTC): 16 July 2024 02:53:42
Eccentricity: 0.0001557
inclination: 43.0033°
perigee height: 558 km
apogee height: 560 km
right ascension of ascending node: 303.0783°
argument of perigee: 261.6841°
revolutions per day: 15.02513941
mean anomaly at epoch: 170.2329°
orbit number at epoch: 1

The dashed part of the orbit path shows where the satellite is in the earth's shadow,  

DLR